User: anonymous
Location: Caltech
(34.1382°N, 118.1253°W)
Time: 01:45:33
(UTC-07:00)
Language:

Iridium 62 - Orbit

View from above orbital plane
View from above orbital plane
View from above satellite
View from above satellite

Ground track
Ground track

The orbit data is extracted from the following two-line orbital elements,

1 25285U 98021A   14231.29079788  .00000242  00000-0  79235-4 0  8899
2 25285 086.3961 295.6553 0002437 111.3578 248.7878 14.34217952856971
Epoch (UTC): 19 August 2014 06:58:44
Eccentricity: 0.0002437
inclination: 86.3961°
perigee height: 776 km
apogee height: 779 km
right ascension of ascending node: 295.6553°
argument of perigee: 111.3578°
revolutions per day: 14.34217952
mean anomaly at epoch: 248.7878°
orbit number at epoch: 85697

The dashed part of the orbit path shows where the satellite is in the earth's shadow,  

DLR